Location: Newark
(43.6583°N, 1.6617°E)
Time: 03:48:01
(UTC+00:00)

Vanguard 1 Rocket - Visible Passes

Search period start: 08 August 2020 00:00
Search period end: 18 August 2020 00:00
Orbit: 655 x 4222 km, 34.3° (Epoch: 07 August)

Date Brightness Start Highest point End Pass type
(mag) Time Alt. Az. Time Alt. Az. Time Alt. Az.
10 Aug 10.4 03:44:16 10° SSE 03:46:15 11° SSE 03:48:03 10° SE visible
12 Aug 10.1 03:42:55 10° SSW 03:49:21 17° SSE 03:54:05 10° ESE visible
13 Aug 10.6 02:33:06 10° S 02:37:36 12° SSE 02:41:20 10° SE visible
14 Aug 9.9 03:43:27 10° SSW 03:52:27 23° SSE 03:58:20 10° ESE visible
15 Aug 10.3 02:35:09 14° S 02:40:40 18° SSE 02:46:52 10° ESE visible
16 Aug 10.8 01:27:52 13° SSE 01:28:30 13° SSE 01:33:43 10° SE visible
16 Aug 9.6 03:45:08 11° SW 03:55:31 29° SSE 04:02:05 10° ESE visible
17 Aug 10.1 02:37:48 19° S 02:43:41 25° SSE 02:51:07 10° ESE visible
